Regional Weather Roundup
Issued by NWS

Home | Current Version | Previous Version | Text Only | Print | Product List | Glossary Off
Versions: 1 2 3 4 5 6 7 8 9 10 11 12 13 14 15 16 17 18 19 20 21 22 23 24 25 26 27 28 29 30 31 32 33 34 35 36 37 38 39 40 41 42 43 44 45 46 47 48 49 50

000
ASUS43 KBIS 220410
RWRND

NORTH DAKOTA REGIONAL WEATHER ROUNDUP
NATIONAL WEATHER SERVICE BISMARCK ND
1000 PM CST TUE NOV 21 2017

NOTE: "FAIR" INDICATES FEW OR NO CLOUDS BELOW 12,000 FEET WITH NO
SIGNIFICANT WEATHER AND/OR OBSTRUCTIONS TO VISIBILITY.


NDZ001>003-009>011-017-220500-
NORTHWEST NORTH DAKOTA

CITY           SKY/WX    TMP DP  RH WIND       PRES   REMARKS
WILLISTON      CLOUDY    15   3  59 SE3       30.18F
MINOT          CLOUDY     8   1  73 SW5       30.24F WCI   0
MINOT AFB      CLOUDY     2  -2  81 S5        30.23F WCI  -7
$$

NDZ018>021-031>035-040>046-220500-
SOUTHWEST NORTH DAKOTA

CITY           SKY/WX    TMP DP  RH WIND       PRES   REMARKS
BISMARCK       CLOUDY     8   4  83 E5        30.31F WCI   0
DICKINSON      CLOUDY    11   2  67 S6        30.16F WCI   1
GARRISON         N/A      7   2  80 CALM      30.24F
HETTINGER ARPT CLOUDY    14   4  64 CALM      30.21F
$$

NDZ004>008-012>016-024-026-027-054-220500-
NORTHEAST NORTH DAKOTA

CITY           SKY/WX    TMP DP  RH WIND       PRES   REMARKS
GRAND FORKS    CLOUDY    14  10  84 W6        30.31R WCI   5
GRND FRKS AFB  CLEAR     13   7  79 W3        30.31R
DEVILS LAKE    CLOUDY    10   5  80 W8        30.29R WCI  -2
$$

NDZ022-023-025-028>030-036>039-047>053-220500-
SOUTHEAST NORTH DAKOTA

CITY           SKY/WX    TMP DP  RH WIND       PRES   REMARKS
FARGO          PTCLDY    14   8  77 W9        30.34F WCI   2
JAMESTOWN      CLOUDY    10   5  80 W6        30.30S WCI   0
$$




USA.gov is the U.S. government's official web portal to all federal, state and local government web resources and services.